Chongqing, China

4:15 PM CST on November 15, 2019 (GMT +0800)
Jiangbei

Weather History for ZUCK - September, 2019

Change the Weather History Date:

Thursday, September 5, 2019

  Actual Average Record
Temperature  
Mean Temperature 78 °F -  
Max Temperature 84 °F - - ()
Min Temperature 71 °F - - ()
Cooling Degree Days 12    
Growing Degree Days 28 (Base 50)    
Moisture  
Dew Point 70 °F    
Average Humidity 82    
Maximum Humidity 95    
Minimum Humidity 56    
Precipitation  
Precipitation 0.24 in - - ()
Sea Level Pressure  
Sea Level Pressure 29.76 in    
Wind  
Wind Speed 6 mph ()    
Max Wind Speed 16 mph    
Max Gust Speed -    
Visibility 4.5 miles    
Events Rain    
T = Trace of Precipitation, MM = Missing Value Source: Averaged Metar Reports

Daily Weather History Graph

Daily Weather History Graph

Search for Another Location

Airport or City:

Astronomy

Sep. 05, 2019 Rise Set
Actual Time 6:32 AM CST 7:11 PM CST
Civil Twilight 6:08 AM CST 7:35 PM CST
Nautical Twilight 5:39 AM CST 8:04 PM CST
Astronomical Twilight 5:10 AM CST 8:33 PM CST
Moon 12:35 PM CST (9/5) 11:34 PM CST (9/5)
Length of Visible Light 13h 27m
Length of Day
12h 39m
Waxing Crescent, 40% of the Moon is Illuminated
Sep 5
Waxing Crescent
Sep 6
First Quarter
Sep 14
Full
Sep 22
Last Quarter
Sep 29
New

Hourly Weather History & Observations

Time (CST) Temp. Heat Index Dew Point Humidity Pressure Visibility Wind Dir Wind Speed Gust Speed Precip Events Conditions
12:00 AM 71.6 °F - 69.8 °F 94% 29.80 in 3.7 mi NNE 15.7 mph - N/A Rain Light Rain
1:00 AM 71.6 °F - 69.8 °F 94% 29.80 in 5.0 mi NNE 11.2 mph - N/A   Unknown
2:00 AM 71.6 °F - 69.8 °F 94% 29.80 in 5.0 mi NNE 11.2 mph - N/A   Unknown
4:00 AM 71.6 °F - 69.8 °F 94% 29.80 in 5.0 mi North 6.7 mph - N/A   Unknown
5:00 AM 72 °F - 70 °F 93% 29.73 in 1 mi WNW 4.5 mph - - Rain Rain
5:00 AM 71.6 °F - 68.0 °F 88% 29.80 in 5.0 mi NNE 6.7 mph - N/A   Unknown
6:00 AM 71.6 °F - 69.8 °F 94% 29.80 in 5.6 mi NE 4.5 mph - N/A Rain Light Rain
7:00 AM 71.6 °F - 69.8 °F 94% 29.83 in 3.7 mi NNW 6.7 mph - N/A Rain Light Rain
8:00 AM 72 °F - 71 °F 95% 29.76 in 2 mi NNW 4.5 mph - - Rain Light Rain
8:00 AM 71.6 °F - 69.8 °F 94% 29.83 in 2.5 mi NNE 4.5 mph - N/A Rain Light Rain
9:00 AM 71.6 °F - 69.8 °F 94% 29.83 in 5.6 mi Variable 2.2 mph - N/A   Unknown
10:00 AM 75.2 °F - 69.8 °F 83% 29.83 in 3.7 mi Variable 2.2 mph - N/A   Unknown
11:00 AM 75 °F - 72 °F 87% 29.78 in 3 mi Calm Calm - - Rain Light Rain
11:00 AM 75.2 °F - 69.8 °F 83% 29.83 in 3.7 mi South 4.5 mph - N/A   Unknown
12:00 PM 77.0 °F - 69.8 °F 78% 29.83 in 4.3 mi Variable 2.2 mph - N/A   Partly Cloudy
1:00 PM 77.0 °F - 68.0 °F 74% 29.80 in 5.0 mi Variable 2.2 mph - N/A   Unknown
2:00 PM 78 °F - 72 °F 77% 29.71 in - NW 2.2 mph - - Rain Light Rain
2:00 PM 80.6 °F 83.9 °F 69.8 °F 70% 29.77 in 5.6 mi SSE 4.5 mph - N/A   Unknown
3:00 PM 80.6 °F 83.9 °F 69.8 °F 70% 29.74 in - Variable 2.2 mph - N/A   Clear
4:00 PM 80.6 °F 83.9 °F 69.8 °F 70% 29.71 in - Variable 2.2 mph - N/A   Clear
5:00 PM 84 °F - 71 °F 56% 29.64 in 6 mi West 2.2 mph - -   Mostly Cloudy
5:00 PM 82.4 °F 86.3 °F 69.8 °F 66% 29.71 in - West 4.5 mph - N/A   Clear
7:00 PM 80.6 °F 84.6 °F 71.6 °F 74% 29.71 in - WNW 6.7 mph - N/A   Clear
8:00 PM 80 °F - 71 °F 68% 29.65 in 6 mi NW 4.5 mph - -   Mostly Cloudy
8:00 PM 78.8 °F - 69.8 °F 74% 29.71 in - WNW 4.5 mph - N/A   Clear
9:00 PM 78.8 °F - 71.6 °F 78% 29.74 in - West 4.5 mph - N/A   Clear
10:00 PM 77.0 °F - 73.4 °F 89% 29.77 in 6.2 mi West 4.5 mph - N/A Rain Light Rain
11:00 PM 79 °F - 71 °F 70% 29.70 in 6 mi NW 2.2 mph - -  
11:00 PM 77.0 °F - 71.6 °F 83% 29.77 in - Variable 2.2 mph - N/A   Clear